TimeMDT,TemperatureF,Dew PointF,Humidity,Sea Level PressureIn,VisibilityMPH,Wind Direction,Wind SpeedMPH,Gust SpeedMPH,PrecipitationIn,Events,Conditions,WindDirDegrees,DateUTC
12:53 AM,70.0,55.0,59,29.91,10.0,WSW,4.6,-,N/A,,Clear,250,2013-08-22 06:53:00
1:53 AM,70.0,53.1,55,29.92,10.0,Calm,Calm,-,N/A,,Clear,0,2013-08-22 07:53:00
2:53 AM,70.0,54.0,57,29.94,10.0,Calm,Calm,-,N/A,,Partly Cloudy,0,2013-08-22 08:53:00
3:53 AM,69.1,55.9,63,29.93,10.0,NE,5.8,-,N/A,,Clear,40,2013-08-22 09:53:00
4:53 AM,66.0,55.9,70,29.93,10.0,Calm,Calm,-,N/A,,Clear,0,2013-08-22 10:53:00
5:53 AM,64.9,55.0,70,29.94,10.0,Calm,Calm,-,N/A,,Clear,0,2013-08-22 11:53:00
6:53 AM,64.9,57.9,78,29.94,10.0,Calm,Calm,-,0.00,,Partly Cloudy,0,2013-08-22 12:53:00
7:53 AM,66.9,57.0,70,29.96,10.0,Calm,Calm,-,N/A,,Partly Cloudy,0,2013-08-22 13:53:00
8:53 AM,69.1,57.0,65,29.96,10.0,Calm,Calm,-,N/A,,Clear,0,2013-08-22 14:53:00
9:53 AM,73.9,55.0,52,29.96,10.0,Variable,3.5,-,N/A,,Clear,0,2013-08-22 15:53:00
10:53 AM,79.0,53.1,40,29.95,10.0,Variable,4.6,-,N/A,,Clear,0,2013-08-22 16:53:00
11:53 AM,82.9,54.0,37,29.94,10.0,East,3.5,-,N/A,,Clear,100,2013-08-22 17:53:00
12:53 PM,86.0,51.1,30,29.91,10.0,Variable,3.5,-,N/A,,Clear,0,2013-08-22 18:53:00
1:53 PM,88.0,53.1,30,29.88,10.0,Calm,Calm,-,N/A,,Clear,0,2013-08-22 19:53:00
2:53 PM,89.1,53.1,29,29.84,10.0,Calm,Calm,-,N/A,,Clear,0,2013-08-22 20:53:00
3:53 PM,90.0,48.0,24,29.81,10.0,Calm,Calm,-,N/A,,Clear,0,2013-08-22 21:53:00
4:53 PM,88.0,52.0,29,29.80,10.0,Calm,Calm,-,N/A,,Clear,0,2013-08-22 22:53:00
5:53 PM,91.9,48.0,22,29.76,10.0,Calm,Calm,-,N/A,,Clear,0,2013-08-22 23:53:00
6:53 PM,89.1,53.1,29,29.77,10.0,ESE,3.5,-,N/A,,Clear,110,2013-08-23 00:53:00
7:53 PM,84.0,55.9,38,29.75,10.0,SW,4.6,-,N/A,,Clear,220,2013-08-23 01:53:00
8:42 PM,80.6,55.4,42,29.89,2.0,WSW,40.3,51.8,N/A,Thunderstorm,Haze,240,2013-08-23 02:42:00
8:45 PM,77.0,53.6,44,29.89,1.0,WSW,36.8,52.9,N/A,Thunderstorm,Unknown,250,2013-08-23 02:45:00
8:50 PM,75.2,53.6,47,29.89,0.8,WSW,35.7,52.9,N/A,Thunderstorm,Unknown,250,2013-08-23 02:50:00